Total_Precipitation_Accumulation
0.02 0.01 0.01 0.01 0.02 0.06 0.10 0.15 0.18 0.19 0.20 0.19 0.16 0.14 0.11 0.11 0.13 0.16 0.20 0.25 0.32 0.41 0.49 0.50 0.49 0.61 0.69 0.64 0.63 0.62 0.66 0.70 0.67 0.65 0.76 0.77 0.61 0.39 0.29 0.24 0.18 0.15 0.11
0.00 0.00 0.00 0.00 0.00 0.01 0.03 0.08 0.14 0.19 0.20 0.20 0.18 0.16 0.11 0.09 0.10 0.12 0.14 0.19 0.27 0.37 0.53 0.68 0.70 0.65 0.63 0.62 0.62 0.63 0.68 0.78 0.78 0.69 0.73 0.79 0.70 0.55 0.41 0.30 0.21 0.14 0.11
0.00 0.00 0.00 0.00 0.01 0.01 0.01 0.01 0.03 0.09 0.15 0.18 0.18 0.17 0.15 0.13 0.11 0.10 0.11 0.13 0.18 0.23 0.36 0.59 0.77 0.90 0.82 0.64 0.55 0.54 0.62 0.76 0.84 0.79 0.78 0.88 0.88 0.72 0.50 0.34 0.23 0.16 0.12
0.00 0.00 0.00 0.01 0.02 0.03 0.03 0.03 0.03 0.04 0.08 0.13 0.17 0.19 0.18 0.16 0.14 0.12 0.12 0.13 0.13 0.16 0.23 0.33 0.46 0.66 0.82 0.87 0.74 0.61 0.61 0.69 0.77 0.81 0.92 1.13 1.13 0.94 0.61 0.39 0.29 0.18 0.12
0.01 0.01 0.01 0.01 0.02 0.03 0.04 0.05 0.06 0.06 0.07 0.13 0.19 0.21 0.20 0.18 0.12 0.13 0.16 0.14 0.15 0.15 0.18 0.22 0.25 0.33 0.46 0.62 0.74 0.79 0.75 0.70 0.75 0.83 1.06 1.46 1.47 1.16 0.71 0.44 0.33 0.22 0.13
0.01 0.02 0.02 0.03 0.04 0.05 0.05 0.05 0.07 0.08 0.12 0.15 0.19 0.23 0.23 0.17 0.12 0.11 0.13 0.16 0.20 0.24 0.24 0.22 0.20 0.20 0.24 0.34 0.47 0.60 0.74 0.77 0.78 0.83 1.04 1.34 1.46 1.30 0.97 0.67 0.40 0.23 0.17
0.01 0.02 0.02 0.04 0.06 0.07 0.07 0.08 0.11 0.14 0.17 0.18 0.19 0.27 0.31 0.30 0.21 0.13 0.10 0.15 0.21 0.26 0.30 0.31 0.21 0.14 0.17 0.21 0.28 0.37 0.46 0.57 0.70 0.78 0.93 1.14 1.41 1.48 1.21 0.78 0.49 0.35 0.20
0.02 0.02 0.04 0.06 0.07 0.09 0.12 0.15 0.18 0.21 0.21 0.21 0.22 0.27 0.36 0.36 0.30 0.21 0.14 0.16 0.23 0.26 0.30 0.31 0.28 0.22 0.20 0.22 0.24 0.25 0.28 0.33 0.41 0.54 0.69 0.92 1.19 1.47 1.52 1.19 0.86 0.59 0.36
0.03 0.05 0.07 0.09 0.13 0.16 0.18 0.22 0.25 0.27 0.24 0.23 0.23 0.26 0.35 0.40 0.35 0.25 0.21 0.22 0.26 0.28 0.30 0.32 0.33 0.28 0.21 0.19 0.23 0.24 0.24 0.26 0.30 0.37 0.49 0.69 0.93 1.22 1.51 1.55 1.15 0.68 0.46
0.07 0.08 0.10 0.14 0.19 0.23 0.27 0.31 0.33 0.34 0.29 0.26 0.22 0.25 0.30 0.42 0.41 0.28 0.24 0.26 0.30 0.34 0.42 0.45 0.41 0.37 0.30 0.19 0.21 0.23 0.21 0.22 0.25 0.26 0.31 0.44 0.61 0.85 1.16 1.31 1.22 0.79 0.44
0.11 0.11 0.13 0.17 0.22 0.24 0.28 0.31 0.34 0.34 0.33 0.31 0.28 0.28 0.30 0.35 0.41 0.31 0.26 0.30 0.35 0.43 0.51 0.59 0.54 0.44 0.33 0.24 0.21 0.22 0.19 0.23 0.26 0.27 0.28 0.34 0.50 0.70 0.88 1.09 1.15 0.95 0.56
0.12 0.13 0.15 0.16 0.17 0.17 0.24 0.28 0.32 0.36 0.35 0.33 0.31 0.30 0.32 0.29 0.28 0.31 0.23 0.22 0.30 0.44 0.57 0.73 0.75 0.63 0.47 0.33 0.27 0.24 0.21 0.21 0.26 0.29 0.30 0.32 0.39 0.51 0.69 0.92 1.08 1.01 0.76
0.13 0.14 0.14 0.15 0.17 0.22 0.29 0.31 0.33 0.36 0.34 0.30 0.27 0.31 0.35 0.34 0.26 0.22 0.19 0.14 0.19 0.38 0.55 0.78 0.87 0.76 0.63 0.49 0.39 0.34 0.28 0.23 0.25 0.25 0.24 0.25 0.30 0.38 0.54 0.80 1.06 1.08 0.94
0.18 0.17 0.17 0.19 0.21 0.26 0.34 0.37 0.40 0.39 0.34 0.28 0.25 0.31 0.33 0.34 0.29 0.25 0.24 0.18 0.19 0.33 0.41 0.55 0.71 0.78 0.72 0.66 0.55 0.43 0.35 0.30 0.27 0.26 0.25 0.27 0.34 0.42 0.50 0.61 0.84 0.96 0.91
0.25 0.23 0.22 0.23 0.25 0.27 0.32 0.36 0.33 0.33 0.26 0.22 0.24 0.31 0.34 0.34 0.28 0.23 0.30 0.32 0.31 0.36 0.38 0.51 0.67 0.78 0.79 0.76 0.71 0.60 0.47 0.42 0.36 0.34 0.35 0.34 0.37 0.42 0.44 0.47 0.59 0.71 0.67
0.32 0.26 0.24 0.24 0.28 0.30 0.30 0.31 0.25 0.16 0.13 0.12 0.12 0.17 0.21 0.19 0.12 0.09 0.14 0.19 0.20 0.22 0.28 0.46 0.62 0.75 0.84 0.84 0.83 0.75 0.62 0.52 0.44 0.42 0.42 0.39 0.37 0.41 0.41 0.39 0.45 0.54 0.55
0.31 0.27 0.24 0.24 0.27 0.27 0.27 0.30 0.34 0.28 0.13 0.08 0.08 0.09 0.11 0.07 0.05 0.06 0.09 0.13 0.13 0.13 0.18 0.35 0.48 0.59 0.74 0.85 0.85 0.78 0.67 0.60 0.53 0.51 0.51 0.47 0.40 0.39 0.41 0.37 0.36 0.43 0.50
0.27 0.27 0.25 0.25 0.27 0.25 0.24 0.26 0.31 0.38 0.34 0.24 0.13 0.09 0.10 0.07 0.09 0.12 0.11 0.13 0.13 0.11 0.13 0.26 0.37 0.48 0.60 0.74 0.78 0.75 0.72 0.67 0.61 0.56 0.56 0.55 0.48 0.40 0.39 0.38 0.34 0.31 0.38
0.26 0.22 0.18 0.18 0.21 0.23 0.24 0.25 0.28 0.31 0.35 0.39 0.28 0.11 0.11 0.11 0.19 0.25 0.18 0.18 0.20 0.15 0.13 0.19 0.26 0.35 0.48 0.63 0.73 0.74 0.73 0.68 0.62 0.59 0.58 0.56 0.54 0.46 0.38 0.38 0.38 0.34 0.30
0.20 0.19 0.13 0.09 0.13 0.20 0.25 0.27 0.25 0.28 0.32 0.40 0.35 0.19 0.11 0.14 0.29 0.36 0.25 0.26 0.26 0.22 0.19 0.20 0.22 0.27 0.41 0.55 0.65 0.70 0.72 0.68 0.61 0.58 0.59 0.56 0.52 0.47 0.40 0.36 0.38 0.34 0.26
0.15 0.13 0.11 0.08 0.12 0.20 0.24 0.25 0.25 0.30 0.35 0.42 0.35 0.17 0.10 0.19 0.38 0.41 0.30 0.27 0.25 0.23 0.22 0.19 0.16 0.20 0.31 0.45 0.54 0.61 0.68 0.64 0.56 0.52 0.56 0.58 0.49 0.45 0.40 0.35 0.33 0.31 0.27
0.15 0.13 0.12 0.11 0.18 0.22 0.20 0.26 0.34 0.37 0.37 0.39 0.31 0.13 0.10 0.21 0.34 0.36 0.29 0.25 0.22 0.19 0.16 0.13 0.11 0.15 0.24 0.35 0.41 0.48 0.58 0.57 0.51 0.46 0.49 0.56 0.51 0.43 0.40 0.37 0.33 0.31 0.30
0.19 0.18 0.15 0.17 0.21 0.19 0.21 0.28 0.35 0.35 0.34 0.32 0.27 0.22 0.20 0.25 0.26 0.26 0.25 0.22 0.19 0.18 0.16 0.16 0.17 0.19 0.25 0.32 0.34 0.38 0.48 0.47 0.42 0.38 0.42 0.50 0.50 0.43 0.38 0.34 0.30 0.28 0.29
0.15 0.17 0.16 0.13 0.13 0.15 0.18 0.20 0.22 0.24 0.25 0.25 0.24 0.23 0.23 0.24 0.23 0.23 0.23 0.22 0.22 0.21 0.20 0.22 0.21 0.21 0.27 0.29 0.30 0.33 0.42 0.41 0.37 0.34 0.36 0.41 0.42 0.39 0.35 0.31 0.28 0.26 0.26
0.15 0.15 0.14 0.12 0.09 0.09 0.13 0.16 0.19 0.21 0.24 0.23 0.19 0.19 0.21 0.22 0.23 0.24 0.25 0.24 0.22 0.22 0.24 0.26 0.25 0.26 0.26 0.25 0.26 0.29 0.36 0.39 0.38 0.35 0.37 0.39 0.36 0.34 0.33 0.31 0.29 0.28 0.27
0.12 0.14 0.16 0.18 0.16 0.13 0.15 0.20 0.23 0.22 0.23 0.20 0.19 0.19 0.24 0.27 0.27 0.28 0.29 0.28 0.26 0.26 0.27 0.30 0.30 0.28 0.28 0.25 0.24 0.27 0.30 0.32 0.35 0.38 0.38 0.37 0.36 0.33 0.32 0.32 0.31 0.30 0.29